N6RDS-8 Weather Reports


time (UTC)temp
F
wind
direction
speed
knots
gust
knots
rain 1hr
in
rain 24hr
in
rain mn
in
humidity
%
barometer
mb
20260506024709 63 137 2.6 2.6 0.00 0.04 0.04 39 1015.9
20260506024205 63 313 2.6 3.5 0.00 0.04 0.04 39 1015.9
20260506023701 63 173 2.6 3.5 0.00 0.04 0.04 38 1015.7
20260506023159 64 253 3.5 3.5 0.00 0.04 0.04 37 1015.5
20260506022656 64 204 1.7 2.6 0.00 0.04 0.04 37 1015.6
20260506022153 64 305 3.5 3.5 0.00 0.04 0.04 37 1015.2
20260506021651 64 211 2.6 2.6 0.00 0.04 0.04 36 1015.2
20260506021148 65 261 2.6 5.2 0.00 0.04 0.04 34 1015.1
20260506020640 66 201 2.6 3.5 0.00 0.04 0.04 33 1015.0
20260506020137 66 209 3.5 3.5 0.00 0.04 0.04 34 1014.9
20260506015635 67 131 1.7 1.7 0.00 0.04 0.04 34 1014.9
20260506015132 67 223 1.7 2.6 0.00 0.04 0.04 34 1014.9
20260506014630 68 94 0.9 1.7 0.00 0.04 0.04 33 1014.8
20260506014125 68 175 2.6 3.5 0.00 0.04 0.04 33 1014.8
20260506013623 68 251 3.5 6.1 0.00 0.04 0.04 33 1014.5
20260506013119 69 228 0.9 1.7 0.00 0.04 0.04 34 1014.6
20260506012615 69 224 3.5 5.2 0.00 0.04 0.04 33 1014.6
20260506012112 69 250 3.5 3.5 0.00 0.04 0.04 33 1014.5
20260506011610 70 201 3.5 6.1 0.00 0.04 0.04 32 1014.5
20260506011106 70 177 2.6 5.2 0.00 0.04 0.04 32 1014.3
20260506010600 70 181 5.2 6.1 0.00 0.04 0.04 32 1014.3
20260506010056 70 145 2.6 3.5 0.00 0.04 0.04 31 1014.2
20260506005554 71 218 1.7 2.6 0.00 0.04 0.04 31 1014.2
20260506005049 70 247 2.6 2.6 0.00 0.04 0.04 32 1014.2
20260506004546 71 212 5.2 7.0 0.00 0.04 0.04 31 1013.9
20260506004043 72 214 6.1 7.8 0.00 0.04 0.04 31 1014.1
20260506003539 72 242 3.5 6.1 0.00 0.04 0.04 31 1014.0
20260506003036 72 161 4.3 5.2 0.00 0.04 0.04 30 1014.2
20260506002532 72 232 4.3 5.2 0.00 0.04 0.04 30 1014.1
20260506002028 72 215 4.3 5.2 0.00 0.04 0.04 29 1013.8
20260506001524 73 230 5.2 8.7 0.00 0.04 0.04 29 1014.0
20260506001021 73 178 4.3 6.1 0.00 0.04 0.04 26 1013.8
20260506000519 73 228 2.6 2.6 0.00 0.04 0.04 30 1014.0
20260506000016 73 274 4.3 6.1 0.00 0.04 0.04 30 1014.0
20260505235514 74 243 5.2 7.0 0.00 0.04 0.04 29 1013.9
20260505235010 74 163 2.6 3.5 0.00 0.04 0.04 30 1013.8
20260505234508 75 239 4.3 5.2 0.00 0.04 0.04 29 1013.7
20260505234004 75 261 6.1 7.0 0.00 0.04 0.04 29 1013.7
20260505233502 75 255 6.1 8.7 0.00 0.04 0.04 30 1013.8
20260505232959 75 280 3.5 5.2 0.00 0.04 0.04 30 1013.6
20260505232457 76 257 7.8 9.6 0.00 0.04 0.04 30 1013.6
20260505231954 76 172 2.6 2.6 0.00 0.04 0.04 31 1013.7
20260505231452 75 252 3.5 5.2 0.00 0.04 0.04 31 1013.7
20260505230950 77 277 3.5 3.5 0.00 0.04 0.04 30 1013.6
20260505230447 76 162 5.2 6.1 0.00 0.04 0.04 31 1013.5
20260505225943 74 226 2.6 3.5 0.00 0.04 0.04 32 1013.6
20260505225441 75 255 3.5 3.5 0.00 0.04 0.04 31 1013.6
20260505224936 74 133 1.7 3.5 0.00 0.04 0.04 32 1013.7
20260505224433 75 197 4.3 6.1 0.00 0.04 0.04 30 1013.8
20260505223930 75 200 3.5 5.2 0.00 0.04 0.04 31 1013.8
20260505223427 75 216 5.2 6.1 0.00 0.04 0.04 30 1013.8
20260505222924 76 267 5.2 7.8 0.00 0.04 0.04 30 1013.8
20260505222420 76 161 4.3 6.1 0.00 0.04 0.04 31 1013.8
20260505221916 75 159 4.3 7.0 0.00 0.04 0.04 31 1013.9
20260505221413 75 239 5.2 7.0 0.00 0.04 0.04 30 1013.8
20260505220910 75 231 4.3 6.1 0.00 0.04 0.04 30 1014.1
20260505220407 75 195 7.8 12.2 0.00 0.04 0.04 29 1014.0
20260505215905 75 228 7.0 9.6 0.00 0.04 0.04 31 1014.1
20260505215403 75 168 2.6 2.6 0.00 0.04 0.04 32 1014.0
20260505214900 75 183 5.2 8.7 0.00 0.04 0.04 31 1014.1
20260505214358 75 239 7.8 12.2 0.00 0.04 0.04 33 1014.2
20260505213855 75 234 6.1 8.7 0.00 0.04 0.04 32 1014.3
20260505213353 76 179 5.2 6.1 0.00 0.04 0.04 30 1014.3
20260505212848 75 94 6.1 8.7 0.00 0.04 0.04 32 1014.3
20260505212346 77 205 3.5 5.2 0.00 0.04 0.04 31 1014.5
20260505211842 76 247 9.6 11.3 0.00 0.04 0.04 30 1014.2
20260505211339 76 260 9.6 13.9 0.00 0.04 0.04 31 1014.7
20260505210836 75 260 7.8 9.6 0.00 0.04 0.04 31 1014.6
20260505210333 76 180 5.2 6.1 0.00 0.04 0.04 30 1014.5
20260505205829 75 237 4.3 7.0 0.00 0.04 0.04 33 1014.9
20260505205328 76 84 3.5 5.2 0.00 0.04 0.04 34 1014.8
20260505204824 75 206 1.7 3.5 0.00 0.04 0.04 34 1014.8
20260505204322 74 201 1.7 2.6 0.00 0.04 0.04 35 1014.7
20260505203819 74 158 4.3 7.0 0.00 0.04 0.04 35 1015.1
20260505203316 75 194 4.3 6.1 0.00 0.04 0.04 34 1014.8
20260505202812 76 178 4.3 5.2 0.00 0.04 0.04 35 1015.0
20260505202308 75 219 5.2 8.7 0.00 0.04 0.04 34 1014.8
20260505201806 77 182 6.1 7.8 0.00 0.04 0.04 35 1014.8
20260505201303 75 200 4.3 6.1 0.00 0.04 0.04 35 1015.0
20260505200801 75 206 3.5 6.1 0.00 0.04 0.04 36 1015.0
20260505200258 74 210 5.2 6.1 0.00 0.04 0.04 35 1014.8
20260505195753 72 230 5.2 7.8 0.00 0.04 0.04 37 1015.0
20260505195251 72 209 1.7 2.6 0.00 0.04 0.04 38 1015.0
20260505194748 73 169 2.6 2.6 0.00 0.04 0.04 37 1015.5
20260505194245 71 175 6.1 8.7 0.00 0.04 0.04 38 1015.5
20260505193740 71 285 2.6 3.5 0.00 0.04 0.04 41 1015.5
20260505193238 74 234 3.5 5.2 0.00 0.04 0.04 39 1015.7
20260505192736 73 198 5.2 6.1 0.00 0.04 0.04 38 1015.7
20260505192233 72 154 3.5 3.5 0.00 0.04 0.04 40 1015.8
20260505191726 73 233 2.6 2.6 0.00 0.04 0.04 40 1015.6
20260505191224 71 178 2.6 3.5 0.00 0.04 0.04 41 1015.6
20260505190719 74 183 6.1 7.0 0.00 0.04 0.04 39 1015.8
20260505190213 74 192 3.5 5.2 0.00 0.04 0.04 39 1016.0
20260505185710 71 113 3.5 5.2 0.00 0.04 0.04 41 1016.1
20260505185207 72 171 4.3 7.0 0.00 0.04 0.04 41 1016.2
20260505184703 75 274 4.3 7.8 0.00 0.04 0.04 40 1016.1
20260505184201 73 78 5.2 7.0 0.00 0.04 0.04 42 1015.9
20260505183657 73 177 3.5 5.2 0.00 0.04 0.04 43 1016.1
20260505183155 70 165 3.5 3.5 0.00 0.04 0.04 44 1016.5
20260505182650 71 171 5.2 6.1 0.00 0.04 0.04 43 1016.1
20260505182148 70 233 4.3 5.2 0.00 0.04 0.04 46 1016.2
20260505181644 73 134 3.5 5.2 0.00 0.04 0.04 46 1016.1
20260505181142 71 224 2.6 3.5 0.00 0.04 0.04 47 1016.4
20260505180638 71 154 3.5 6.1 0.00 0.04 0.04 46 1016.4
20260505180135 71 147 5.2 7.8 0.00 0.04 0.04 45 1016.4
20260505175631 71 231 3.5 3.5 0.00 0.04 0.04 47 1016.7
20260505175128 71 177 4.3 7.0 0.00 0.04 0.04 49 1016.5
20260505174624 72 195 5.2 7.0 0.00 0.04 0.04 47 1016.2
20260505174121 71 178 5.2 6.1 0.00 0.04 0.04 48 1016.5
20260505173617 70 175 3.5 5.2 0.00 0.04 0.04 50 1016.5
20260505173114 69 190 3.5 6.1 0.00 0.04 0.04 51 1016.6
20260505172611 70 251 4.3 7.0 0.00 0.04 0.04 53 1016.7
20260505172108 68 222 5.2 7.8 0.00 0.04 0.04 53 1016.7
20260505171602 70 224 4.3 6.1 0.00 0.04 0.04 51 1016.4
20260505171100 68 176 2.6 2.6 0.00 0.04 0.04 57 1016.6
20260505170556 68 85 1.7 1.7 0.00 0.04 0.04 58 1016.7
20260505170053 68 340 0.9 0.9 0.00 0.04 0.04 62 1016.6
20260505165548 68 217 1.7 1.7 0.00 0.04 0.04 61 1016.7
20260505165044 66 295 3.5 5.2 0.00 0.04 0.04 61 1016.8
20260505164540 65 207 0.9 1.7 0.00 0.04 0.04 64 1016.7
20260505164038 65 118 0.9 1.7 0.00 0.04 0.04 65 1016.8
20260505163537 64 160 1.7 1.7 0.00 0.04 0.04 64 1016.7
20260505163033 63 125 0.9 1.7 0.00 0.04 0.04 64 1016.7
20260505162526 64 318 1.7 1.7 0.00 0.04 0.04 67 1016.9
20260505162023 63 17 0.9 1.7 0.00 0.04 0.04 67 1016.8
20260505161520 64 89 0.9 0.9 0.00 0.04 0.04 68 1016.9
20260505161017 65 319 1.7 2.6 0.00 0.04 0.04 63 1016.9
20260505160515 64 85 0.0 0.9 0.00 0.04 0.04 60 1016.7
20260505152951 60 101 0.0 0.0 0.00 0.04 0.04 81 1016.7
20260505152449 59 110 0.9 0.9 0.00 0.04 0.04 82 1016.6
20260505151943 58 113 0.0 0.9 0.00 0.04 0.04 84 1016.8
20260505151434 58 113 1.7 1.7 0.00 0.04 0.04 85 1016.7
20260505150932 57 104 0.0 0.0 0.00 0.04 0.04 86 1016.8
20260505150428 57 79 0.9 1.7 0.00 0.04 0.04 87 1016.9
20260505140357 56 106 0.0 0.0 0.00 0.04 0.04 90 1016.2
20260505124811 54 108 0.0 0.0 0.00 0.03 0.03 92 1015.9
20260505124308 54 107 0.0 0.0 0.00 0.03 0.03 91 1015.9
20260505123804 54 107 0.0 0.0 0.00 0.03 0.03 91 1015.9
20260505123300 54 109 0.0 0.0 0.05 0.03 0.03 90 1015.9
20260505122757 55 114 1.7 1.7 0.05 0.03 0.03 90 1015.8
20260505122255 55 117 0.9 1.7 0.05 0.03 0.03 89 1015.8
20260505121751 55 111 0.9 0.9 0.00 0.02 0.02 90 1016.0
20260505121247 55 127 1.7 2.6 0.00 0.02 0.02 89 1015.3
20260505120744 55 110 0.9 0.9 0.00 0.02 0.02 90 1015.5
20260505120240 54 110 0.9 0.9 0.00 0.02 0.02 91 1015.6
20260505115739 54 99 0.9 0.9 0.00 0.02 0.02 92 1015.5
20260505115237 54 109 0.0 0.9 0.00 0.02 0.02 92 1015.3
20260505114734 55 106 0.0 0.0 0.00 0.02 0.02 92 1015.6
20260505114230 55 92 0.0 0.9 0.00 0.02 0.02 92 1015.8
20260505113726 55 114 0.9 0.9 0.00 0.02 0.02 93 1015.9
20260505113224 55 106 0.9 1.7 0.00 0.02 0.02 92 1016.4
20260505112720 55 149 1.7 1.7 0.00 0.02 0.02 92 1016.4
20260505112218 54 106 0.0 0.0 0.00 0.02 0.02 92 1016.2
20260505111717 54 136 0.0 0.0 0.00 0.02 0.02 92 1016.0
20260505111213 54 110 0.9 0.9 0.00 0.02 0.02 93 1016.2
20260505110709 54 112 0.9 0.9 0.00 0.02 0.02 93 1016.2
20260505110207 54 109 0.9 1.7 0.00 0.02 0.02 93 1016.4
20260505102142 54 89 0.9 0.9 0.00 0.01 0.01 92 1017.0
20260505101641 55 96 0.0 0.0 0.00 0.01 0.01 92 1017.2
20260505101137 55 107 0.0 0.0 0.07 0.01 0.01 92 1017.5
20260505100633 55 86 0.9 0.9 0.07 0.01 0.01 91 1017.4
20260505100130 55 93 0.0 0.9 0.00 0.00 0.00 91 1017.8
20260505095626 55 90 0.9 0.9 0.00 0.00 0.00 90 1017.7
20260505095123 55 38 2.6 2.6 0.00 0.00 0.00 90 1017.7
20260505094620 55 21 2.6 2.6 0.00 0.00 0.00 90 1017.8
20260505094116 55 98 0.9 0.9 0.00 0.00 0.00 90 1017.8
20260505093612 55 50 2.6 3.5 0.00 0.00 0.00 89 1017.9
20260505093109 55 12 1.7 2.6 0.00 0.00 0.00 89 1018.0
20260505092607 56 83 0.0 0.9 0.00 0.00 0.00 88 1018.2
20260505092106 56 47 1.7 2.6 0.00 0.00 0.00 87 1018.0
20260505091602 56 314 1.7 1.7 0.00 0.00 0.00 86 1018.0
20260505091100 56 93 0.9 1.7 0.00 0.00 0.00 85 1018.1
20260505090558 57 75 2.6 3.5 0.00 0.00 0.00 84 1018.1
20260505090055 57 102 1.7 1.7 0.00 0.00 0.00 82 1018.2
20260505085553 57 90 0.9 0.9 0.00 0.00 0.00 80 1018.2
20260505085051 58 16 1.7 2.6 0.00 0.00 0.00 77 1018.4
20260505084549 58 343 1.7 1.7 0.00 0.00 0.00 74 1018.1
20260505084047 59 71 1.7 2.6 0.00 0.00 0.00 72 1018.6
20260505083543 59 287 2.6 2.6 0.00 0.00 0.00 71 1018.7
20260505083040 59 19 3.5 7.0 0.00 0.00 0.00 70 1018.7
20260505082536 60 188 1.7 2.6 0.00 0.00 0.00 69 1018.6
20260505082033 60 319 0.9 2.6 0.00 0.00 0.00 67 1018.5
20260505081529 60 59 0.9 0.9 0.00 0.00 0.00 66 1018.4
20260505081026 60 67 0.9 1.7 0.00 0.00 0.00 66 1018.4
20260505080522 60 104 0.0 0.0 0.00 0.00 0.00 65 1018.4
20260505080020 60 76 0.9 0.9 0.00 0.00 0.00 65 1018.5
20260505075515 60 256 0.0 0.9 0.00 0.00 0.00 65 1018.7
20260505075012 60 104 0.0 0.0 0.00 0.00 0.00 64 1018.5
20260505074510 60 107 0.0 0.0 0.00 0.00 0.00 64 1018.7
20260505074007 60 79 1.7 1.7 0.00 0.00 0.00 63 1018.7
20260505073504 60 73 0.9 1.7 0.00 0.00 0.00 62 1018.6
20260505073002 60 335 2.6 2.6 0.00 0.00 0.00 61 1018.7
20260505072457 60 61 1.7 1.7 0.00 0.00 0.00 60 1018.7
20260505071954 60 87 0.9 1.7 0.00 0.00 0.00 61 1018.8
20260505071449 61 95 1.7 1.7 0.00 0.00 0.00 60 1018.7
20260505070948 61 86 1.7 1.7 0.00 0.00 0.00 60 1018.8
20260505070444 61 65 1.7 1.7 0.00 0.00 0.00 59 1018.9
20260505065940 61 82 1.7 2.6 0.00 0.00 0.00 62 1018.9
20260505065437 61 106 0.9 0.9 0.00 0.00 0.00 62 1018.6
20260505064933 61 102 0.0 0.0 0.00 0.00 0.00 61 1018.5
20260505064430 61 100 0.0 0.9 0.00 0.00 0.00 60 1018.6
20260505063929 61 111 0.0 0.0 0.00 0.00 0.00 56 1018.7
20260505063425 61 107 0.0 0.0 0.00 0.00 0.00 56 1018.8
20260505062922 61 99 0.0 0.0 0.00 0.00 0.00 54 1018.8
20260505062419 61 128 0.0 0.0 0.00 0.00 0.00 54 1018.7
20260505061915 61 101 0.0 0.0 0.00 0.00 0.00 53 1018.8
20260505061414 61 106 0.0 0.0 0.00 0.00 0.00 52 1018.9
20260505060911 61 105 0.9 1.7 0.00 0.00 0.00 51 1019.0
20260505060408 61 101 0.0 0.0 0.00 0.00 0.00 50 1018.8
20260505055904 61 105 0.0 0.9 0.00 0.00 0.00 50 1018.6
20260505055400 62 106 1.7 2.6 0.00 0.00 0.00 49 1018.6
20260505054857 62 75 0.9 1.7 0.00 0.00 0.00 48 1018.6
20260505054354 61 79 0.9 0.9 0.00 0.00 0.00 49 1018.5
20260505053852 61 102 0.0 0.0 0.00 0.00 0.00 48 1018.7
20260505053349 61 102 0.9 0.9 0.00 0.00 0.00 47 1018.7
20260505052846 61 78 2.6 3.5 0.00 0.00 0.00 47 1018.7
20260505052343 61 86 0.9 0.9 0.00 0.00 0.00 47 1018.7
20260505051840 61 84 1.7 1.7 0.00 0.00 0.00 46 1018.9
20260505051337 61 84 0.0 0.9 0.00 0.00 0.00 46 1018.8
20260505050835 61 105 0.0 0.0 0.00 0.00 0.00 47 1018.8
20260505050334 62 106 0.0 0.0 0.00 0.00 0.00 46 1018.8
20260505041301 63 89 2.6 3.5 0.00 0.00 0.00 45 1018.0
20260505040758 62 212 2.6 3.5 0.00 0.00 0.00 46 1018.4
20260505040255 62 93 0.9 0.9 0.00 0.00 0.00 46 1018.8
20260505035752 62 206 1.7 1.7 0.00 0.00 0.00 46 1018.8
20260505035248 62 65 1.7 1.7 0.00 0.00 0.00 45 1018.8
20260505034745 62 62 0.9 0.9 0.00 0.00 0.00 45 1018.8
20260505034242 62 63 1.7 2.6 0.00 0.00 0.00 45 1018.8
20260505033738 62 91 1.7 1.7 0.00 0.00 0.00 45 1018.9
20260505033236 62 355 4.3 6.1 0.00 0.00 0.00 45 1018.6
20260505032734 62 105 0.9 1.7 0.00 0.00 0.00 45 1018.4
20260505032229 62 344 3.5 6.1 0.00 0.00 0.00 45 1018.6
20260505031727 62 43 2.6 3.5 0.00 0.00 0.00 45 1018.1
20260505031223 62 289 1.7 7.0 0.00 0.00 0.00 45 1018.1
20260505030721 63 355 1.7 2.6 0.00 0.00 0.00 44 1018.1
20260505030216 63 32 2.6 2.6 0.00 0.00 0.00 44 1017.7
20260505025712 63 67 5.2 7.0 0.00 0.00 0.00 44 1017.9
20260505025211 64 274 4.3 7.0 0.00 0.00 0.00 43 1017.6